Theta_e
330 342 350 353 353 352 352 351 351 351 349 348 348 348 347 346 346 348 350 350 350 348 348 347 346 345 343 340 340 339 340 341 343 350 351 350 347 346 347 349 349 350 352
334 342 348 352 353 353 352 351 351 351 350 349 348 348 348 347 348 347 348 350 348 346 344 344 343 342 341 337 336 335 335 335 337 339 348 349 348 346 345 347 348 348 351
334 343 348 350 353 352 351 351 351 351 351 348 349 349 348 347 347 348 350 348 346 345 342 341 339 338 336 333 333 333 332 332 333 335 338 342 342 346 344 344 347 346 349
334 343 345 348 351 352 351 350 350 351 351 349 348 346 345 344 342 342 347 345 343 341 339 338 336 333 330 330 330 330 329 329 331 334 331 339 342 346 345 344 344 345 345
329 343 345 347 351 351 351 350 350 350 351 350 347 346 344 341 339 338 339 339 340 340 335 334 332 329 328 326 325 324 324 325 329 328 330 335 341 345 345 345 343 343 343
328 341 343 348 351 351 351 350 350 350 351 350 349 346 344 340 336 336 337 337 336 335 332 330 328 326 324 321 321 320 319 321 326 323 326 334 333 341 343 342 340 341 340
327 335 344 346 349 351 351 350 349 349 350 350 349 348 340 338 336 333 334 335 335 333 329 328 325 323 321 318 316 315 314 317 314 318 323 325 328 336 337 338 337 337 337
327 333 342 340 343 347 349 349 348 348 349 350 348 345 342 338 336 333 333 334 333 330 327 327 322 321 319 317 314 312 312 316 312 313 320 319 330 331 332 333 333 333 334
327 330 334 340 340 338 342 344 345 346 347 347 344 342 340 339 335 333 333 332 331 327 326 324 321 319 317 315 311 309 310 315 304 307 315 313 323 326 327 328 329 330 330
326 329 330 335 338 338 339 336 338 341 342 341 338 335 333 333 332 331 329 331 328 325 325 322 320 318 316 312 308 304 306 311 301 304 309 312 320 322 323 324 325 326 327
324 327 330 331 334 335 337 335 332 334 335 333 331 329 326 326 326 324 324 327 327 326 323 321 319 316 313 308 304 303 307 298 299 301 305 314 316 317 318 320 321 323 325
319 324 328 330 331 332 335 334 334 333 332 331 331 328 327 325 323 322 319 324 326 325 323 320 318 314 309 299 297 303 298 297 297 298 302 312 313 315 317 318 320 322 324
318 322 326 328 330 330 331 329 332 332 329 332 332 329 327 325 319 315 314 316 314 315 311 312 308 303 299 297 297 296 297 296 295 298 304 310 314 314 315 317 321 323 321
311 319 324 326 328 328 329 327 327 328 326 329 326 328 327 321 316 313 313 313 312 309 307 305 300 299 298 298 298 297 296 295 295 297 302 309 313 314 317 320 320 321 322
309 311 319 324 325 327 327 326 326 326 328 327 325 327 327 319 314 312 311 312 312 308 307 303 298 298 297 296 297 296 296 295 295 296 300 310 314 316 317 319 321 322 322
308 310 314 322 324 324 325 325 326 324 325 327 326 327 325 318 313 311 310 310 310 307 304 300 298 296 296 296 295 296 295 295 295 296 300 305 315 318 317 320 322 324 323
307 309 311 316 321 321 323 324 324 324 323 324 325 323 321 316 312 310 308 308 308 305 302 298 297 296 295 296 294 294 294 294 295 296 298 304 307 312 318 317 319 323 320
305 308 310 313 316 319 319 320 323 321 321 321 321 320 319 316 312 308 307 306 306 302 298 296 294 294 293 293 292 292 292 294 294 295 297 302 306 304 306 312 317 319 317
304 304 307 311 312 315 318 318 319 320 319 318 319 317 316 315 311 307 305 305 303 298 295 295 293 293 292 291 292 291 292 292 293 295 295 300 300 301 298 304 305 306 313
301 302 303 305 309 312 313 315 315 316 316 316 315 315 314 313 310 305 303 303 300 296 294 294 292 293 292 292 292 292 290 292 291 291 294 298 296 294 295 295 295 298 305
300 300 301 301 303 306 307 308 310 310 312 313 313 313 313 311 309 305 301 300 298 296 295 294 293 292 291 291 289 288 289 290 290 291 292 292 292 292 291 292 292 294 298
297 298 299 300 301 302 304 306 307 308 309 311 312 311 311 309 307 305 301 299 296 294 293 294 292 291 291 291 288 287 284 286 288 290 290 291 290 290 290 291 290 291 295
295 295 297 298 299 300 301 303 303 303 301 301 305 306 308 308 306 304 301 298 296 294 294 293 293 292 288 289 291 289 285 284 284 287 288 289 289 288 288 289 290 291 292
294 295 295 296 296 299 299 300 299 299 297 298 300 303 305 306 305 303 301 299 296 294 293 292 293 293 290 289 288 291 289 289 285 281 285 287 287 288 287 287 287 289 291
294 293 293 294 295 295 296 296 296 296 297 297 298 297 298 300 301 302 301 298 297 295 292 292 291 290 291 289 290 286 286 286 287 284 280 282 285 286 287 287 287 287 290
292 291 292 292 292 293 294 293 293 292 292 293 294 294 295 296 297 298 299 298 297 295 292 291 291 290 290 290 290 287 287 286 285 285 284 281 282 284 286 287 287 287 288
Wind_Speed
5 13 16 16 16 13 12 13 12 11 11 11 10 10 10 7 6 6 7 9 10 11 11 11 10 11 11 9 10 9 9 9 8 10 12 13 12 12 13 15 13 9 11
10 14 15 16 15 14 12 12 11 13 13 13 11 10 11 9 7 7 6 8 11 10 8 9 9 10 10 8 9 8 9 8 7 6 6 12 11 11 12 12 10 10 13
10 14 12 15 16 15 14 14 12 11 13 12 13 13 12 10 8 7 9 10 10 10 8 7 7 8 7 8 7 8 8 7 6 6 5 1 6 11 10 11 10 11 12
10 15 12 12 15 15 15 14 11 10 11 12 11 10 10 9 8 4 8 10 10 9 7 7 7 8 7 7 8 8 7 7 7 8 5 5 8 11 9 10 10 10 12
7 14 13 14 15 15 15 15 14 12 13 13 13 12 10 8 7 5 3 4 7 9 5 6 6 7 7 7 7 7 7 7 9 9 7 8 6 10 12 11 11 11 11
8 10 12 17 16 17 15 15 15 13 11 12 14 15 14 11 6 6 4 3 3 5 5 6 7 6 6 7 7 6 6 6 9 5 6 9 7 10 10 11 10 11 10
8 6 14 18 14 16 17 16 15 14 13 12 13 17 11 9 9 6 5 6 6 6 6 7 6 7 6 7 7 6 5 8 6 6 7 7 6 9 7 8 7 8 7
8 7 9 11 12 12 15 15 15 14 13 12 14 11 12 10 9 8 6 7 8 7 7 7 7 7 7 7 7 6 5 6 4 5 6 6 7 5 5 5 5 6 7
8 8 8 9 10 10 11 12 12 12 12 13 12 12 12 10 10 9 8 9 9 8 8 7 7 7 7 7 6 5 5 8 6 3 7 4 7 3 4 3 4 4 5
5 8 7 9 10 7 7 11 11 11 11 12 12 11 10 9 9 9 6 7 9 9 9 9 8 8 8 7 5 3 5 8 4 4 5 4 4 3 4 3 4 4 4
5 7 8 7 10 10 9 9 11 12 11 10 10 9 8 5 6 7 7 9 9 9 9 9 8 8 8 6 3 0 4 2 4 4 3 6 4 2 2 3 3 3 5
8 7 8 8 8 9 9 8 9 7 6 5 7 7 5 5 5 6 7 9 9 10 10 10 9 8 8 3 2 1 1 2 3 4 3 5 3 1 2 2 2 4 6
10 8 9 8 8 8 7 5 6 5 4 5 8 6 5 5 4 4 4 4 4 7 3 5 5 3 4 2 2 3 2 2 2 3 4 3 3 0 1 2 4 5 4
8 12 11 10 8 8 5 5 5 5 4 6 4 8 6 4 5 5 4 5 5 4 5 5 3 4 3 3 4 4 3 3 2 3 3 4 4 2 3 5 5 5 6
9 8 11 12 9 7 7 5 5 5 7 8 5 7 6 5 5 5 5 5 5 5 5 5 5 4 3 4 4 5 4 4 2 2 2 4 5 3 3 5 6 6 7
8 9 7 12 12 9 8 8 6 5 6 9 8 9 9 6 5 5 5 5 5 5 5 5 5 5 4 3 3 3 4 4 4 3 3 3 8 8 3 6 8 9 9
8 9 9 8 10 10 10 7 5 5 5 5 7 8 9 7 7 7 5 5 5 5 7 5 5 5 4 3 4 3 3 2 2 2 2 4 5 13 13 2 4 8 11
5 8 8 6 6 7 6 5 5 3 4 4 5 5 8 8 8 7 5 5 6 5 5 4 4 3 4 4 3 3 2 1 2 1 1 0 3 4 8 11 10 10 10
13 10 1 8 9 8 6 3 5 6 4 4 4 4 7 8 8 7 6 5 6 6 5 6 4 5 3 4 4 4 3 3 2 1 2 1 4 5 3 6 9 9 6
15 15 13 7 4 6 4 3 1 3 2 4 3 4 7 6 7 6 5 7 6 6 5 5 6 4 4 5 4 4 2 2 2 2 2 2 1 3 4 4 2 3 3
18 16 14 10 8 5 3 2 1 2 2 1 2 4 5 6 6 6 4 5 7 10 11 9 5 7 3 5 5 2 1 2 3 3 3 3 2 2 2 2 2 2 2
15 14 14 13 11 6 4 2 2 1 0 3 3 3 4 7 7 5 5 4 5 3 6 9 7 5 4 8 5 4 3 3 4 5 5 5 7 4 4 4 3 3 3
15 14 15 15 13 10 9 5 4 4 4 4 3 2 1 3 5 6 7 6 6 5 7 7 8 10 5 6 7 7 4 6 2 2 5 5 6 4 5 6 6 6 5
14 12 14 14 14 12 12 7 7 3 2 1 2 3 3 4 3 5 6 6 6 5 6 6 6 8 6 8 1 7 1 5 6 3 3 4 5 6 6 4 5 5 6
9 11 10 12 14 13 12 11 7 7 5 3 3 6 4 1 2 3 4 6 6 5 5 7 6 7 6 6 8 3 1 2 1 4 4 4 4 5 6 8 7 6 6
7 7 8 11 13 13 12 12 9 8 7 6 6 5 3 2 2 4 5 5 6 6 7 6 7 8 7 6 6 5 5 6 5 4 3 3 4 5 6 7 8 8 7
Wind_Direction
166 144 154 160 159 155 150 140 139 136 141 138 131 121 116 106 98 95 101 105 94 91 87 82 74 70 66 57 52 54 55 51 48 57 91 83 68 59 52 40 55 55 58
133 146 158 161 158 156 152 148 153 157 156 152 148 149 136 121 114 142 139 130 116 107 98 89 82 70 71 59 57 50 48 46 30 22 80 96 80 63 58 55 54 60 60
131 146 162 164 160 158 160 160 165 169 158 158 166 147 136 127 111 101 125 110 97 91 95 91 85 78 70 64 59 56 44 27 11 333 292 192 98 84 68 61 60 61 59
141 146 166 167 163 161 163 158 161 172 161 163 156 142 132 137 125 127 109 109 107 96 93 96 94 87 73 60 52 47 44 15 349 326 312 54 95 94 81 71 63 62 71
152 149 167 165 167 165 166 162 169 179 179 168 162 161 155 147 136 150 69 59 98 105 113 105 100 88 77 64 53 44 26 5 334 328 35 37 65 78 71 67 73 64 62
158 150 155 166 172 170 171 171 175 182 179 174 171 170 162 154 164 168 178 152 170 131 130 118 106 92 78 67 64 51 24 353 326 27 34 61 41 59 63 72 65 53 55
158 158 155 166 180 178 176 178 180 185 190 194 187 179 181 181 172 174 185 190 164 157 143 126 110 99 84 76 66 58 26 357 36 38 55 56 37 58 43 67 61 59 58
158 155 154 167 170 184 184 185 186 189 194 200 178 174 152 187 192 189 195 178 167 157 152 131 125 115 107 94 79 60 32 13 64 52 74 63 39 67 72 74 83 80 78
167 160 154 170 185 185 186 188 193 197 201 184 171 152 145 170 193 196 194 175 166 165 151 140 130 122 108 96 81 58 29 16 71 39 74 48 18 57 53 66 74 75 83
196 163 187 166 177 188 191 191 196 198 184 173 163 156 153 158 174 187 179 175 175 170 156 149 144 135 124 112 105 66 7 358 65 63 69 35 14 62 57 53 68 81 84
210 181 181 193 182 186 187 184 183 178 177 166 159 155 136 151 156 164 172 176 185 166 159 154 149 137 126 121 127 272 2 44 66 62 71 31 13 45 65 67 82 97 102
214 215 185 191 191 184 195 176 180 174 174 170 167 160 148 160 166 173 172 177 172 152 160 161 153 147 160 159 185 257 88 73 72 83 67 27 346 26 90 82 97 117 103
200 194 199 194 191 187 197 172 180 180 187 185 200 159 163 182 177 162 138 146 135 135 145 143 135 175 228 153 141 101 97 69 98 84 96 52 356 128 146 161 148 115 122
214 200 188 192 193 194 177 182 163 168 177 194 184 182 166 181 167 160 145 160 151 157 163 152 170 205 130 95 103 97 71 57 61 91 81 54 356 302 173 149 142 147 142
222 212 190 183 185 190 194 186 176 175 177 189 181 190 194 172 162 155 162 163 161 158 164 160 163 158 160 157 152 143 128 109 93 86 111 73 6 324 160 166 152 144 153
221 219 206 180 187 179 193 194 189 182 177 176 187 193 190 159 153 163 180 175 167 158 159 151 158 168 173 157 156 142 141 137 128 142 145 106 52 28 189 164 165 141 114
220 195 196 192 179 185 189 191 196 191 190 167 179 177 163 156 163 167 171 168 165 154 150 149 160 158 152 162 162 151 141 132 132 131 153 154 99 56 43 88 179 149 125
330 178 184 162 173 182 193 182 181 198 190 180 170 163 163 165 163 168 170 174 162 148 145 144 156 156 164 163 155 171 127 86 73 96 315 22 130 98 71 60 67 107 124
11 6 148 170 170 174 186 183 182 185 177 185 170 164 164 174 173 161 170 174 159 151 151 157 167 158 164 173 165 158 153 152 170 192 248 345 66 105 100 74 69 56 75
16 16 19 15 154 159 138 166 171 161 179 159 183 165 168 174 180 166 172 171 157 150 162 169 165 176 161 165 136 118 135 163 163 196 194 124 76 82 122 139 119 64 73
18 14 10 17 7 79 83 104 104 172 162 142 155 180 174 166 180 180 179 176 169 173 178 175 161 170 174 150 101 56 355 180 183 206 177 165 164 192 159 146 146 139 157
21 18 13 12 19 31 44 57 83 110 221 160 161 169 185 165 170 177 177 186 181 174 187 182 164 159 162 170 147 124 186 309 263 215 183 181 181 182 188 193 198 185 201
27 27 24 17 18 15 12 29 32 42 30 33 20 49 272 154 171 178 189 185 179 177 191 196 188 177 166 203 186 147 141 215 140 238 222 201 184 183 186 188 186 191 201
22 19 27 26 21 18 16 15 33 55 73 345 232 182 164 167 192 194 200 205 189 187 193 196 199 197 160 187 250 241 250 152 165 184 241 216 206 191 192 195 186 202 201
31 23 25 29 29 15 21 26 24 17 359 347 27 59 28 24 257 267 239 213 217 199 210 196 195 203 207 179 199 141 128 258 289 131 185 214 214 201 194 177 178 194 205
33 42 36 37 26 25 23 17 22 18 4 2 4 2 351 200 207 235 266 261 240 220 202 206 209 202 204 212 202 207 178 169 195 172 140 175 201 240 189 188 186 186 193